Temperature
19 19 19 19 19 18 18 18 17 17 17 17 16 16 15 15 15 15 13 13 13 13 12 12 12 12 12 12 12 12 12 12 13 13 13 13 11 12 12 12 12 12 13
19 19 19 19 19 19 18 18 18 18 17 17 17 16 16 15 15 15 15 14 14 13 13 12 12 12 12 12 12 12 12 12 12 12 12 12 12 11 11 12 12 12 12
19 19 20 19 19 19 19 19 18 18 18 17 17 17 17 16 16 16 15 15 15 14 14 13 13 12 12 12 12 12 12 12 11 12 12 12 12 11 11 11 11 11 12
19 19 19 20 19 19 19 19 19 18 18 18 17 17 17 17 16 16 16 16 15 15 14 14 14 13 13 13 12 12 12 12 12 11 12 12 12 12 11 11 12 12 11
19 19 19 19 19 19 19 19 19 18 18 18 18 17 17 17 16 16 16 15 15 15 15 15 14 14 14 13 13 12 12 11 12 12 12 12 12 12 12 12 12 12 12
19 19 18 18 18 18 18 18 18 18 18 18 17 17 17 16 16 16 16 15 15 15 15 15 14 14 14 14 14 13 13 12 12 12 12 12 12 12 11 11 11 12 12
17 17 17 17 17 17 17 17 17 17 17 17 17 17 16 16 16 16 16 15 15 14 14 14 14 14 14 14 14 14 14 13 12 12 12 12 12 11 11 11 11 11 11
16 16 16 16 16 16 16 16 16 16 16 16 16 16 16 16 16 16 15 15 14 14 14 14 14 14 13 13 13 13 13 13 13 12 12 12 11 11 10 10 10 10 10
15 15 15 15 15 15 15 15 15 15 15 15 15 14 14 14 14 15 14 14 13 13 13 13 13 13 13 13 13 12 12 12 12 12 12 12 12 11 10 10 10 10 10
14 14 14 14 14 14 14 14 14 14 13 13 13 13 13 13 13 13 13 13 12 12 12 12 13 13 13 13 12 12 12 12 11 11 11 11 11 11 11 10 10 10 11
13 13 13 13 13 13 13 13 13 12 12 12 12 12 12 12 12 12 12 11 11 11 11 12 12 12 12 12 12 11 11 11 11 11 11 10 10 10 10 10 10 10 10
12 12 12 12 12 11 11 11 11 11 11 11 11 11 11 11 11 10 10 10 10 10 10 10 11 11 11 11 11 11 11 11 10 10 10 11 11 11 10 10 10 10 10
11 10 10 10 10 10 10 10 10 10 10 10 10 10 10 10 10 9 9 9 9 9 9 9 9 9 10 10 10 10 10 10 9 10 10 11 11 11 11 10 10 9 9
10 10 10 10 10 10 10 10 10 10 10 9 9 9 9 9 9 8 8 8 8 8 8 8 8 9 9 9 9 9 9 9 9 9 10 10 11 11 10 10 10 10 9
10 10 10 10 10 9 9 9 9 8 8 8 8 8 8 8 7 7 7 6 6 6 7 7 7 8 8 9 9 9 9 9 9 9 9 10 10 10 10 10 10 10 10
10 10 10 10 10 9 9 9 9 8 8 7 7 7 7 6 6 6 6 6 6 6 6 6 7 7 8 8 8 9 9 9 9 9 9 9 9 10 10 9 9 9 9
9 9 9 9 9 9 9 9 9 8 8 7 7 6 6 5 5 5 5 5 6 6 6 6 6 7 7 7 8 8 8 8 9 8 9 9 9 9 9 9 9 9 9
9 9 9 9 9 8 8 8 8 8 7 7 7 6 5 5 5 5 5 4 5 5 6 6 6 6 6 7 7 7 8 8 8 8 8 8 8 9 9 9 9 9 9
8 8 8 8 8 8 7 7 7 7 6 6 6 5 5 4 4 4 4 4 5 5 5 5 5 6 6 6 6 6 7 7 7 7 8 8 8 8 8 8 8 8 8
8 8 7 7 7 7 6 6 6 5 5 5 4 4 4 4 4 4 4 4 4 4 4 4 4 5 5 5 5 6 6 6 7 7 7 7 7 8 8 8 8 8 8
7 7 6 6 6 5 5 4 4 4 3 3 3 3 2 2 3 3 3 3 3 3 3 3 4 4 4 5 5 5 5 5 6 6 7 7 7 7 7 7 8 8 8
6 6 5 5 4 4 3 3 3 3 2 2 2 2 2 2 2 2 2 2 2 2 3 3 3 4 4 4 4 5 5 5 5 6 6 6 7 7 7 7 7 7 7
5 5 4 4 3 3 2 2 2 2 1 1 1 1 1 1 1 1 2 2 2 2 2 2 3 3 3 4 4 4 4 5 5 5 6 6 6 6 7 7 7 7 7
4 3 3 3 2 2 1 1 1 1 1 1 1 0 1 1 1 1 1 1 1 2 2 2 2 3 3 3 4 4 4 4 5 5 5 5 6 6 6 6 7 7 7
3 2 1 1 1 0 0 0 0 -0 -0 -0 0 0 0 0 1 1 1 1 1 2 2 2 2 3 3 3 4 4 4 4 4 5 5 5 5 6 6 6 6 6 7
1 0 0 -0 -0 -0 -0 -0 -1 -1 -0 -0 -0 -0 0 0 0 0 1 1 1 2 2 2 2 3 3 3 4 4 4 4 4 5 5 5 5 5 5 6 6 6 6
Wind_Speed
15 14 13 13 13 12 12 11 11 10 10 10 10 10 10 10 10 10 10 8 9 9 9 9 9 9 7 7 7 7 8 8 9 9 8 7 7 10 9 10 11 11 12
15 14 14 13 12 13 13 12 12 11 11 11 11 11 11 11 11 11 11 11 11 11 11 10 11 9 10 10 8 9 9 9 10 11 10 9 9 9 10 10 12 12 12
14 14 13 13 13 13 13 12 12 12 11 11 11 12 12 12 12 12 12 12 12 12 12 12 12 11 11 10 10 10 9 10 10 11 11 9 9 9 10 11 12 10 13
13 13 13 13 13 12 12 12 12 12 12 12 12 12 12 12 13 13 13 13 13 13 13 13 13 13 13 13 11 12 11 11 11 12 12 11 10 10 9 10 11 10 10
10 11 11 10 10 10 10 10 11 11 12 12 12 12 13 12 12 13 13 13 13 14 14 14 15 14 14 12 12 12 12 12 12 12 12 11 11 9 9 10 10 10 10
8 8 7 7 7 8 9 9 9 10 10 11 12 12 13 12 10 11 12 13 13 14 15 15 15 15 16 17 17 16 15 15 15 13 13 13 12 11 10 10 11 11 11
3 3 4 4 5 6 7 7 8 8 9 10 11 12 13 13 10 12 14 14 15 15 15 15 14 15 16 16 18 21 21 21 19 18 17 16 15 12 12 13 13 13 13
3 1 1 1 2 2 3 4 5 6 7 8 10 11 12 12 10 12 12 14 16 17 17 17 17 17 16 16 16 17 18 19 20 20 19 19 17 14 13 14 14 14 14
7 5 5 4 2 2 2 3 3 4 5 7 8 9 10 10 8 9 10 12 14 18 18 18 18 18 17 16 17 18 19 18 18 20 20 18 16 13 12 12 13 14 14
9 8 8 7 6 5 4 4 4 4 5 7 7 8 9 10 7 8 9 10 13 14 14 16 17 19 18 16 18 18 20 20 18 17 18 19 20 20 19 18 17 16 15
8 9 9 8 6 6 6 5 5 5 5 6 7 8 8 8 7 6 8 9 12 14 14 14 14 14 17 17 18 18 19 18 16 17 16 17 17 16 18 19 18 17 17
8 9 9 8 8 7 6 6 6 6 6 6 7 8 7 7 6 6 8 12 13 14 14 14 14 11 12 16 16 18 19 17 16 16 17 17 17 16 16 17 18 19 18
7 8 7 7 7 7 7 6 6 5 7 7 8 8 8 8 7 6 8 11 13 12 14 16 17 17 15 15 18 20 18 16 16 17 18 18 17 16 14 13 16 17 19
6 6 6 6 7 7 7 7 7 8 8 9 9 10 10 10 9 9 10 10 12 12 13 15 16 19 18 18 17 16 16 16 17 18 18 18 16 15 15 15 15 15 16
6 7 7 7 7 7 7 6 7 7 6 8 10 10 11 12 10 12 12 13 14 14 15 15 15 16 16 15 15 16 16 16 17 18 18 17 16 16 15 14 14 15 15
7 8 8 8 8 8 9 9 5 7 6 9 11 11 11 11 12 14 16 17 18 17 14 15 16 17 17 17 16 16 16 16 16 17 17 17 16 16 15 14 14 15 16
8 8 9 9 9 10 10 11 12 9 9 12 14 14 14 14 15 16 17 19 20 17 14 15 16 16 16 16 16 16 16 16 15 15 15 16 15 16 15 14 15 15 16
9 7 8 9 10 11 11 12 12 13 14 12 10 10 11 12 14 17 18 16 16 13 13 14 15 15 15 15 15 15 15 15 14 14 14 15 15 15 15 15 16 16 16
9 9 9 10 11 11 11 12 12 14 14 14 14 12 9 11 14 16 14 14 14 15 14 14 14 14 14 14 14 14 14 13 14 13 13 14 14 14 14 15 16 15 15
8 4 6 10 11 11 11 12 12 13 14 13 14 14 14 15 14 15 13 13 14 14 14 14 14 14 14 13 13 13 13 12 12 12 12 13 13 14 15 16 15 14 14
10 9 7 10 10 10 11 12 12 13 13 13 13 13 13 14 15 15 14 13 13 14 14 14 13 13 13 12 11 11 12 11 11 11 10 11 12 12 13 13 14 14 13
9 10 10 10 10 10 11 12 12 13 14 14 14 14 14 13 13 13 13 13 13 13 13 13 13 12 11 10 10 10 10 10 9 9 9 10 11 11 12 12 12 12 12
9 10 10 10 10 10 11 11 12 13 13 13 14 14 13 13 13 13 14 14 13 13 13 12 12 11 11 10 9 9 9 9 8 8 8 9 9 10 10 11 13 13 13
9 10 10 10 11 11 12 12 12 13 13 13 13 13 13 13 13 14 14 13 13 13 12 12 12 14 16 12 9 8 7 7 8 7 9 9 9 9 9 10 11 12 13
9 9 10 10 10 11 11 12 12 12 13 13 12 13 13 13 13 13 13 13 14 14 15 14 11 12 14 15 12 9 8 9 8 8 8 8 9 10 10 10 10 11 12
9 9 9 9 10 10 11 11 11 12 12 12 12 12 13 13 13 13 13 13 13 13 13 12 13 15 15 12 12 11 9 8 8 8 8 8 9 9 10 10 12 11 12
Wind_Direction
215 216 221 219 217 217 218 217 214 215 207 209 212 214 214 214 214 217 233 229 231 237 237 238 240 257 259 258 252 254 256 259 267 274 273 264 262 273 282 280 275 271 262
216 216 219 221 220 219 219 216 213 213 212 212 214 216 218 219 217 219 227 230 231 236 238 240 242 239 239 253 258 255 255 257 262 271 276 272 257 258 264 269 271 267 269
216 217 219 220 219 221 223 218 214 213 215 216 216 219 223 224 223 224 228 232 234 236 238 239 240 242 242 243 244 252 253 249 249 261 267 268 267 261 263 262 262 261 267
217 218 220 221 221 222 222 220 217 215 216 218 220 223 226 228 228 229 229 232 236 238 239 240 240 239 239 241 242 245 251 256 254 256 264 264 260 256 255 263 264 251 252
220 223 225 224 224 225 224 222 220 218 220 221 225 228 230 232 232 231 233 235 238 241 241 241 241 239 241 241 246 245 243 246 252 254 259 262 260 258 257 259 264 267 259
223 229 231 228 226 226 224 222 222 224 227 226 228 232 234 237 224 220 235 246 245 245 246 245 244 235 232 229 239 248 252 249 251 256 259 260 262 261 260 264 268 267 266
210 229 228 228 233 237 237 231 230 232 234 234 236 238 241 243 223 214 223 244 252 251 250 248 249 246 232 237 230 229 239 243 247 251 257 260 262 257 259 259 255 261 267
69 54 41 239 244 252 250 250 249 247 247 246 247 247 249 248 222 219 222 240 252 254 252 249 248 252 246 240 242 239 238 236 233 236 245 252 255 260 257 256 265 264 261
51 44 38 34 31 13 332 303 286 275 267 264 262 261 260 261 236 222 224 252 253 254 254 252 249 250 245 233 242 247 249 248 240 232 235 243 250 254 252 253 252 252 256
46 46 46 41 35 28 16 356 337 307 290 285 280 274 270 271 259 232 226 258 263 263 259 256 251 248 249 229 238 245 249 250 251 242 229 236 243 242 232 236 245 249 254
48 49 46 40 38 31 19 9 354 336 322 307 300 293 286 283 278 251 235 259 271 273 270 266 262 242 239 236 235 245 250 254 255 252 248 240 236 234 231 225 230 239 247
50 46 43 35 25 24 16 7 356 342 321 310 306 300 296 295 291 284 256 253 268 278 278 277 278 276 255 244 241 245 248 251 253 253 250 246 242 237 232 229 224 228 238
45 39 33 28 24 15 2 354 343 338 326 323 318 312 309 310 303 274 267 268 267 274 279 280 283 285 278 263 246 239 240 245 245 245 245 245 244 241 238 232 231 230 235
27 18 11 5 1 5 346 344 341 337 334 330 323 317 314 311 311 322 321 309 293 282 285 285 276 266 259 257 260 248 242 241 239 242 244 245 245 241 236 235 233 230 233
1 352 343 342 345 333 329 327 322 327 334 315 316 315 313 311 328 338 317 308 307 305 307 295 284 277 270 262 257 251 246 240 237 240 243 243 243 241 238 233 233 235 237
341 339 334 330 332 323 320 315 281 267 244 238 250 271 294 295 303 301 296 289 284 283 288 282 278 275 273 271 266 260 251 245 241 238 238 238 238 239 238 236 234 235 239
328 328 325 325 324 320 318 315 313 298 250 240 241 244 255 276 283 285 285 286 281 274 274 275 275 275 274 272 270 266 262 256 248 243 240 237 236 238 237 236 234 236 238
316 319 315 317 317 314 314 312 310 310 311 309 287 258 255 264 273 277 280 288 290 282 282 282 282 280 278 276 275 273 269 264 256 248 242 238 235 235 236 237 236 236 237
315 318 327 320 312 312 314 312 311 311 311 312 312 307 295 288 278 277 282 293 299 300 298 294 290 287 283 280 279 277 274 269 262 252 245 239 236 235 236 237 238 235 237
312 326 316 313 312 317 320 318 317 316 314 314 314 316 322 320 313 310 308 307 305 303 302 298 294 289 286 281 278 276 273 268 265 257 247 241 238 237 237 236 235 234 233
324 324 315 309 322 326 324 320 318 316 315 316 314 319 325 314 308 307 309 308 308 307 305 303 297 294 291 285 278 275 274 270 264 258 251 246 241 237 235 234 234 236 237
324 325 328 328 328 327 326 318 317 318 318 317 315 316 316 310 310 310 309 309 310 307 306 303 300 298 297 296 293 288 279 275 271 264 256 251 244 239 235 234 236 237 237
329 332 332 332 330 329 322 324 325 322 320 319 318 319 319 317 314 313 313 313 311 310 308 308 307 305 304 301 295 289 286 284 280 274 267 259 249 242 238 236 237 238 238
340 339 337 336 336 333 331 328 325 324 323 321 319 318 317 317 316 316 317 315 314 312 312 311 309 309 311 308 299 297 302 312 311 297 285 276 265 254 246 241 240 240 242
351 349 344 343 340 335 332 330 329 326 323 321 321 321 321 320 319 319 318 317 315 313 313 312 310 312 315 319 320 322 335 334 325 316 298 283 273 267 259 252 249 248 246
359 354 349 344 339 335 333 332 330 329 326 325 324 324 324 324 323 322 322 321 320 318 316 316 316 318 317 317 322 329 327 321 318 312 298 280 270 262 260 258 257 253 254
Height
1541 1543 1545 1547 1548 1549 1551 1552 1553 1554 1554 1554 1555 1555 1555 1556 1556 1556 1557 1558 1557 1557 1557 1557 1556 1556 1557 1557 1557 1556 1556 1555 1554 1553 1553 1552 1549 1547 1547 1546 1545 1545 1545
1537 1539 1541 1542 1544 1545 1546 1547 1548 1549 1550 1551 1551 1551 1552 1553 1553 1553 1553 1554 1554 1554 1554 1553 1553 1553 1552 1552 1552 1552 1552 1551 1550 1549 1548 1547 1545 1543 1542 1540 1541 1541 1540
1534 1535 1536 1538 1539 1541 1542 1543 1544 1545 1546 1547 1547 1548 1548 1549 1549 1549 1549 1549 1549 1549 1549 1549 1548 1548 1547 1548 1547 1547 1547 1546 1545 1544 1543 1542 1541 1540 1538 1536 1536 1534 1534
1529 1530 1531 1533 1534 1536 1537 1538 1539 1540 1541 1542 1543 1543 1544 1544 1544 1545 1545 1545 1544 1544 1544 1543 1543 1543 1542 1542 1542 1541 1541 1541 1540 1539 1538 1537 1536 1535 1533 1532 1531 1530 1529
1524 1525 1526 1528 1529 1530 1532 1533 1534 1535 1536 1537 1537 1538 1538 1539 1539 1540 1540 1540 1539 1539 1538 1538 1537 1537 1536 1536 1536 1536 1536 1535 1535 1534 1533 1532 1531 1530 1529 1528 1527 1525 1524
1519 1520 1522 1523 1524 1525 1526 1527 1528 1529 1530 1531 1531 1532 1532 1533 1534 1533 1534 1534 1533 1533 1532 1531 1531 1530 1529 1529 1528 1528 1529 1528 1528 1528 1527 1526 1525 1524 1523 1522 1522 1520 1519
1514 1515 1517 1518 1519 1520 1521 1522 1522 1523 1524 1524 1525 1525 1525 1526 1526 1526 1527 1526 1526 1525 1524 1524 1523 1524 1522 1521 1520 1520 1519 1519 1519 1519 1518 1518 1518 1518 1517 1516 1515 1514 1513
1512 1513 1513 1513 1514 1515 1516 1516 1517 1517 1518 1518 1518 1518 1518 1518 1518 1518 1518 1518 1517 1516 1516 1515 1514 1514 1514 1514 1513 1512 1510 1510 1509 1509 1508 1508 1509 1509 1509 1509 1508 1507 1505
1511 1511 1510 1511 1511 1511 1511 1511 1511 1511 1511 1511 1511 1511 1511 1510 1510 1510 1510 1508 1507 1506 1506 1506 1505 1504 1504 1504 1504 1502 1502 1501 1501 1500 1499 1499 1499 1500 1501 1501 1501 1500 1499
1512 1510 1509 1508 1508 1507 1507 1506 1506 1506 1506 1506 1506 1505 1504 1503 1502 1501 1501 1499 1498 1498 1497 1496 1495 1495 1494 1494 1493 1492 1491 1492 1493 1492 1490 1489 1489 1489 1490 1490 1491 1492 1491
1512 1510 1508 1507 1506 1505 1504 1503 1502 1502 1501 1500 1500 1499 1497 1496 1495 1494 1493 1491 1490 1489 1487 1486 1486 1485 1484 1484 1483 1482 1481 1482 1482 1482 1482 1480 1479 1479 1479 1479 1479 1481 1482
1512 1510 1508 1506 1506 1505 1503 1501 1500 1499 1498 1497 1495 1494 1493 1491 1489 1487 1485 1484 1482 1479 1477 1477 1476 1474 1473 1472 1471 1470 1471 1471 1471 1471 1471 1470 1470 1470 1470 1470 1470 1470 1471
1512 1510 1508 1506 1505 1503 1501 1500 1499 1497 1496 1494 1492 1490 1488 1486 1483 1481 1478 1476 1473 1470 1468 1466 1464 1463 1461 1460 1459 1458 1459 1459 1458 1458 1458 1459 1460 1460 1461 1461 1461 1461 1461
1512 1510 1508 1506 1504 1502 1500 1499 1497 1495 1493 1491 1489 1486 1483 1481 1478 1475 1472 1469 1466 1463 1460 1456 1453 1451 1449 1447 1446 1446 1445 1445 1445 1445 1446 1447 1449 1450 1450 1451 1452 1452 1452
1511 1509 1507 1506 1503 1501 1499 1496 1494 1492 1489 1486 1484 1481 1478 1474 1472 1468 1464 1460 1457 1454 1450 1445 1443 1441 1439 1437 1435 1434 1434 1433 1432 1433 1434 1435 1436 1438 1439 1440 1441 1442 1442
1510 1508 1506 1504 1501 1499 1496 1493 1490 1487 1484 1480 1477 1474 1470 1467 1463 1460 1456 1453 1449 1445 1441 1436 1433 1431 1429 1427 1425 1423 1422 1421 1420 1421 1421 1422 1424 1425 1427 1428 1430 1431 1432
1508 1506 1504 1501 1498 1495 1492 1489 1485 1482 1479 1475 1471 1467 1464 1460 1456 1452 1448 1444 1440 1436 1432 1428 1424 1421 1419 1416 1414 1412 1411 1410 1410 1410 1410 1411 1412 1414 1415 1417 1419 1420 1421
1506 1503 1501 1498 1495 1491 1488 1484 1481 1477 1473 1469 1466 1462 1457 1453 1449 1445 1440 1435 1431 1428 1424 1420 1415 1412 1409 1407 1404 1402 1400 1399 1399 1399 1399 1400 1401 1403 1404 1406 1408 1410 1411
1502 1500 1496 1493 1490 1487 1483 1480 1476 1472 1467 1463 1459 1456 1452 1447 1442 1438 1434 1429 1424 1420 1416 1411 1407 1404 1400 1397 1395 1393 1391 1389 1389 1388 1389 1389 1391 1393 1394 1396 1398 1399 1401
1498 1494 1491 1488 1485 1482 1478 1475 1471 1466 1462 1458 1453 1450 1445 1441 1436 1432 1428 1423 1418 1413 1408 1404 1399 1395 1392 1388 1385 1384 1382 1381 1380 1379 1379 1380 1382 1383 1385 1386 1388 1390 1391
1494 1491 1487 1484 1481 1477 1473 1470 1466 1461 1457 1452 1448 1444 1439 1435 1430 1425 1421 1416 1411 1406 1401 1396 1392 1388 1384 1381 1378 1376 1374 1373 1372 1371 1371 1372 1373 1374 1375 1377 1379 1381 1383
1489 1486 1483 1480 1476 1472 1468 1465 1461 1457 1452 1448 1443 1439 1434 1429 1425 1420 1415 1410 1405 1400 1395 1390 1385 1382 1378 1375 1372 1370 1368 1366 1365 1364 1364 1364 1365 1366 1368 1369 1371 1373 1374
1485 1482 1479 1475 1472 1468 1464 1461 1457 1452 1448 1443 1438 1434 1429 1424 1419 1414 1409 1404 1399 1394 1389 1384 1380 1376 1373 1370 1367 1365 1362 1360 1359 1358 1358 1358 1359 1360 1361 1363 1364 1366 1367
1482 1478 1475 1472 1468 1464 1461 1457 1452 1448 1444 1439 1434 1429 1424 1420 1415 1410 1404 1399 1394 1389 1384 1380 1376 1372 1368 1365 1362 1360 1358 1356 1354 1354 1353 1353 1354 1355 1356 1357 1358 1359 1361
1478 1475 1472 1468 1465 1461 1457 1453 1449 1445 1440 1435 1431 1426 1421 1416 1411 1405 1400 1395 1390 1384 1380 1375 1371 1368 1364 1361 1358 1356 1354 1352 1351 1350 1349 1349 1349 1349 1350 1351 1352 1353 1354
1476 1472 1469 1466 1462 1459 1455 1451 1446 1442 1437 1432 1428 1423 1418 1412 1407 1401 1396 1391 1385 1380 1376 1371 1368 1364 1361 1357 1355 1352 1350 1348 1347 1345 1345 1344 1344 1344 1345 1346 1346 1347 1348